NCAR-RAP Real-Time Weather Data

Output produced by METARs form (24 July 2017  08:49 UTC)
found at http://weather.rap.ucar.edu/surface/
 
Conditions at: KVVG observed 24 July 2017  08:30 UTC
Temperature: 25.0°C (77°F)
Dewpoint: 25.0°C (77°F) [RH = 100%]
Pressure (altimeter): 29.91 inches Hg (1013.0 mb)
Winds: calm
Visibility: 10 or more miles (16+ km)
Ceiling: unknown
Clouds: missing
Present Weather: automated observation with no human augmentation;
there may or may not be significant weather present at this time
KVVG 240830Z AUTO 00000KT 10SM 25/25 A2991 RMK A01

Conditions at: KVVG observed 24 July 2017  08:10 UTC
Temperature: 25.0°C (77°F)
Dewpoint: 25.0°C (77°F) [RH = 100%]
Pressure (altimeter): 29.91 inches Hg (1013.0 mb)
Winds: calm
Visibility: 10 or more miles (16+ km)
Ceiling: unknown
Clouds: missing
Present Weather: automated observation with no human augmentation;
there may or may not be significant weather present at this time
KVVG 240810Z AUTO 00000KT 10SM 25/25 A2991 RMK A01

Conditions at: KVVG observed 24 July 2017  07:50 UTC
Temperature: 25.0°C (77°F)
Dewpoint: 25.0°C (77°F) [RH = 100%]
Pressure (altimeter): 29.91 inches Hg (1013.0 mb)
Winds: calm
Visibility: 10 or more miles (16+ km)
Ceiling: unknown
Clouds: missing
Present Weather: automated observation with no human augmentation;
there may or may not be significant weather present at this time
KVVG 240750Z AUTO 00000KT 10SM 25/25 A2991 RMK A01

Conditions at: KVVG observed 24 July 2017  07:30 UTC
Temperature: 25.0°C (77°F)
Dewpoint: 25.0°C (77°F) [RH = 100%]
Pressure (altimeter): 29.91 inches Hg (1013.0 mb)
Winds: calm
Visibility: 10 or more miles (16+ km)
Ceiling: unknown
Clouds: missing
Present Weather: automated observation with no human augmentation;
there may or may not be significant weather present at this time
KVVG 240730Z AUTO 00000KT 10SM 25/25 A2991 RMK A01

Conditions at: KVVG observed 24 July 2017  07:10 UTC
Temperature: 25.0°C (77°F)
Dewpoint: 25.0°C (77°F) [RH = 100%]
Pressure (altimeter): 29.91 inches Hg (1013.0 mb)
Winds: calm
Visibility: 10 or more miles (16+ km)
Ceiling: unknown
Clouds: missing
Present Weather: automated observation with no human augmentation;
there may or may not be significant weather present at this time
KVVG 240710Z AUTO 00000KT 10SM 25/25 A2991 RMK A01

Conditions at: KVVG observed 24 July 2017  06:50 UTC
Temperature: 25.0°C (77°F)
Dewpoint: 25.0°C (77°F) [RH = 100%]
Pressure (altimeter): 29.93 inches Hg (1013.6 mb)
Winds: calm
Visibility: 10 or more miles (16+ km)
Ceiling: unknown
Clouds: missing
Present Weather: automated observation with no human augmentation;
there may or may not be significant weather present at this time
KVVG 240650Z AUTO 00000KT 10SM 25/25 A2993 RMK A01

Conditions at: KVVG observed 24 July 2017  06:30 UTC
Temperature: 25.0°C (77°F)
Dewpoint: 25.0°C (77°F) [RH = 100%]
Pressure (altimeter): 29.93 inches Hg (1013.6 mb)
Winds: calm
Visibility: 10 or more miles (16+ km)
Ceiling: unknown
Clouds: missing
Present Weather: automated observation with no human augmentation;
there may or may not be significant weather present at this time
KVVG 240630Z AUTO 00000KT 10SM 25/25 A2993 RMK A01

Conditions at: KVVG observed 24 July 2017  06:10 UTC
Temperature: 25.0°C (77°F)
Dewpoint: 25.0°C (77°F) [RH = 100%]
Pressure (altimeter): 29.94 inches Hg (1014.0 mb)
Winds: calm
Visibility: 10 or more miles (16+ km)
Ceiling: unknown
Clouds: missing
Present Weather: automated observation with no human augmentation;
there may or may not be significant weather present at this time
KVVG 240610Z AUTO 00000KT 10SM 25/25 A2994 RMK A01

Conditions at: KVVG observed 24 July 2017  05:50 UTC
Temperature: 25.0°C (77°F)
Dewpoint: 25.0°C (77°F) [RH = 100%]
Pressure (altimeter): 29.93 inches Hg (1013.6 mb)
Winds: calm
Visibility: 10 or more miles (16+ km)
Ceiling: unknown
Clouds: missing
Present Weather: automated observation with no human augmentation;
there may or may not be significant weather present at this time
KVVG 240550Z AUTO 00000KT 10SM 25/25 A2993 RMK A01

Conditions at: KVVG observed 24 July 2017  05:30 UTC
Temperature: 25.0°C (77°F)
Dewpoint: 25.0°C (77°F) [RH = 100%]
Pressure (altimeter): 29.94 inches Hg (1014.0 mb)
Winds: calm
Visibility: 10 or more miles (16+ km)
Ceiling: unknown
Clouds: missing
Present Weather: automated observation with no human augmentation;
there may or may not be significant weather present at this time
KVVG 240530Z AUTO 00000KT 10SM 25/25 A2994 RMK A01

Conditions at: KVVG observed 24 July 2017  05:10 UTC
Temperature: 24.0°C (75°F)
Dewpoint: 24.0°C (75°F) [RH = 100%]
Pressure (altimeter): 29.94 inches Hg (1014.0 mb)
Winds: calm
Visibility: 10 or more miles (16+ km)
Ceiling: unknown
Clouds: missing
Present Weather: automated observation with no human augmentation;
there may or may not be significant weather present at this time
KVVG 240510Z AUTO 00000KT 10SM 24/24 A2994 RMK A01

Conditions at: KVVG observed 24 July 2017  04:50 UTC
Temperature: 24.0°C (75°F)
Dewpoint: 24.0°C (75°F) [RH = 100%]
Pressure (altimeter): 29.94 inches Hg (1014.0 mb)
Winds: calm
Visibility: 10 or more miles (16+ km)
Ceiling: unknown
Clouds: missing
Present Weather: automated observation with no human augmentation;
there may or may not be significant weather present at this time
KVVG 240450Z AUTO 00000KT 10SM 24/24 A2994 RMK A01

Conditions at: KVVG observed 24 July 2017  04:30 UTC
Temperature: 24.0°C (75°F)
Dewpoint: 24.0°C (75°F) [RH = 100%]
Pressure (altimeter): 29.95 inches Hg (1014.3 mb)
Winds: calm
Visibility: 10 or more miles (16+ km)
Ceiling: unknown
Clouds: missing
Present Weather: automated observation with no human augmentation;
there may or may not be significant weather present at this time
KVVG 240430Z AUTO 00000KT 10SM 24/24 A2995 RMK A01

Conditions at: KVVG observed 24 July 2017  04:10 UTC
Temperature: 24.0°C (75°F)
Dewpoint: 24.0°C (75°F) [RH = 100%]
Pressure (altimeter): 29.95 inches Hg (1014.3 mb)
Winds: calm
Visibility: 10 or more miles (16+ km)
Ceiling: unknown
Clouds: missing
Present Weather: automated observation with no human augmentation;
there may or may not be significant weather present at this time
KVVG 240410Z AUTO 00000KT 10SM 24/24 A2995 RMK A01

Conditions at: KVVG observed 24 July 2017  03:50 UTC
Temperature: 24.0°C (75°F)
Dewpoint: 24.0°C (75°F) [RH = 100%]
Pressure (altimeter): 29.95 inches Hg (1014.3 mb)
Winds: calm
Visibility: 10 or more miles (16+ km)
Ceiling: unknown
Clouds: missing
Present Weather: automated observation with no human augmentation;
there may or may not be significant weather present at this time
KVVG 240350Z AUTO 00000KT 10SM 24/24 A2995 RMK A01

Conditions at: KVVG observed 24 July 2017  03:30 UTC
Temperature: 24.0°C (75°F)
Dewpoint: 24.0°C (75°F) [RH = 100%]
Pressure (altimeter): 29.95 inches Hg (1014.3 mb)
Winds: calm
Visibility: 10 or more miles (16+ km)
Ceiling: unknown
Clouds: missing
Present Weather: automated observation with no human augmentation;
there may or may not be significant weather present at this time
KVVG 240330Z AUTO 00000KT 10SM 24/24 A2995 RMK A01

Conditions at: KVVG observed 24 July 2017  03:10 UTC
Temperature: 24.0°C (75°F)
Dewpoint: 24.0°C (75°F) [RH = 100%]
Pressure (altimeter): 29.95 inches Hg (1014.3 mb)
Winds: calm
Visibility: 10 or more miles (16+ km)
Ceiling: unknown
Clouds: missing
Present Weather: automated observation with no human augmentation;
there may or may not be significant weather present at this time
KVVG 240310Z AUTO 00000KT 10SM 24/24 A2995 RMK A01

Conditions at: KVVG observed 24 July 2017  02:50 UTC
Temperature: 24.0°C (75°F)
Dewpoint: 24.0°C (75°F) [RH = 100%]
Pressure (altimeter): 29.94 inches Hg (1014.0 mb)
Winds: calm
Visibility: 10 or more miles (16+ km)
Ceiling: unknown
Clouds: missing
Present Weather: automated observation with no human augmentation;
there may or may not be significant weather present at this time
KVVG 240250Z AUTO 00000KT 10SM 24/24 A2994 RMK A01

Conditions at: KVVG observed 24 July 2017  02:30 UTC
Temperature: 24.0°C (75°F)
Dewpoint: 24.0°C (75°F) [RH = 100%]
Pressure (altimeter): 29.93 inches Hg (1013.6 mb)
Winds: calm
Visibility: 10 or more miles (16+ km)
Ceiling: unknown
Clouds: missing
Present Weather: automated observation with no human augmentation;
there may or may not be significant weather present at this time
KVVG 240230Z AUTO 00000KT 10SM 24/24 A2993 RMK A01

Conditions at: KVVG observed 24 July 2017  02:10 UTC
Temperature: 24.0°C (75°F)
Dewpoint: 24.0°C (75°F) [RH = 100%]
Pressure (altimeter): 29.92 inches Hg (1013.3 mb)
Winds: calm
Visibility: 10 or more miles (16+ km)
Ceiling: unknown
Clouds: missing
Present Weather: automated observation with no human augmentation;
there may or may not be significant weather present at this time
KVVG 240210Z AUTO 00000KT 10SM 24/24 A2992 RMK A01

Conditions at: KVVG observed 24 July 2017  01:50 UTC
Temperature: 25.0°C (77°F)
Dewpoint: 25.0°C (77°F) [RH = 100%]
Pressure (altimeter): 29.91 inches Hg (1013.0 mb)
Winds: calm
Visibility: 10 or more miles (16+ km)
Ceiling: unknown
Clouds: missing
Present Weather: automated observation with no human augmentation;
there may or may not be significant weather present at this time
KVVG 240150Z AUTO 00000KT 10SM 25/25 A2991 RMK A01

Conditions at: KVVG observed 24 July 2017  01:30 UTC
Temperature: 25.0°C (77°F)
Dewpoint: 25.0°C (77°F) [RH = 100%]
Pressure (altimeter): 29.91 inches Hg (1013.0 mb)
Winds: calm
Visibility: 10 or more miles (16+ km)
Ceiling: unknown
Clouds: missing
Present Weather: automated observation with no human augmentation;
there may or may not be significant weather present at this time
KVVG 240130Z AUTO 00000KT 10SM 25/25 A2991 RMK A01

Conditions at: KVVG observed 24 July 2017  01:10 UTC
Temperature: 25.0°C (77°F)
Dewpoint: 25.0°C (77°F) [RH = 100%]
Pressure (altimeter): 29.91 inches Hg (1013.0 mb)
Winds: calm
Visibility: 10 or more miles (16+ km)
Ceiling: unknown
Clouds: missing
Present Weather: automated observation with no human augmentation;
there may or may not be significant weather present at this time
KVVG 240110Z AUTO 00000KT 10SM 25/25 A2991 RMK A01

Conditions at: KVVG observed 24 July 2017  00:50 UTC
Temperature: 25.0°C (77°F)
Dewpoint: 25.0°C (77°F) [RH = 100%]
Pressure (altimeter): 29.91 inches Hg (1013.0 mb)
Winds: calm
Visibility: 10 or more miles (16+ km)
Ceiling: unknown
Clouds: missing
Present Weather: automated observation with no human augmentation;
there may or may not be significant weather present at this time
KVVG 240050Z AUTO 00000KT 10SM 25/25 A2991 RMK A01

Conditions at: KVVG observed 24 July 2017  00:30 UTC
Temperature: 26.0°C (79°F)
Dewpoint: 25.0°C (77°F) [RH = 94%]
Pressure (altimeter): 29.91 inches Hg (1013.0 mb)
Winds: calm
Visibility: 10 or more miles (16+ km)
Ceiling: unknown
Clouds: missing
Present Weather: automated observation with no human augmentation;
there may or may not be significant weather present at this time
KVVG 240030Z AUTO 00000KT 10SM 26/25 A2991 RMK A01

Conditions at: KVVG observed 24 July 2017  00:10 UTC
Temperature: 26.0°C (79°F)
Dewpoint: 25.0°C (77°F) [RH = 94%]
Pressure (altimeter): 29.90 inches Hg (1012.6 mb)
Winds: calm
Visibility: 10 or more miles (16+ km)
Ceiling: unknown
Clouds: missing
Present Weather: automated observation with no human augmentation;
there may or may not be significant weather present at this time
KVVG 240010Z AUTO 00000KT 10SM 26/25 A2990 RMK A01

Conditions at: KVVG observed 23 July 2017  23:50 UTC
Temperature: 26.0°C (79°F)
Dewpoint: 25.0°C (77°F) [RH = 94%]
Pressure (altimeter): 29.90 inches Hg (1012.6 mb)
Winds: calm
Visibility: 10 or more miles (16+ km)
Ceiling: unknown
Clouds: missing
Present Weather: automated observation with no human augmentation;
there may or may not be significant weather present at this time
KVVG 232350Z AUTO 00000KT 10SM 26/25 A2990 RMK A01

Conditions at: KVVG observed 23 July 2017  23:30 UTC
Temperature: 26.0°C (79°F)
Dewpoint: 25.0°C (77°F) [RH = 94%]
Pressure (altimeter): 29.90 inches Hg (1012.6 mb)
Winds: calm
Visibility: 10 or more miles (16+ km)
Ceiling: unknown
Clouds: missing
Present Weather: automated observation with no human augmentation;
there may or may not be significant weather present at this time
KVVG 232330Z AUTO 00000KT 10SM 26/25 A2990 RMK A01

Conditions at: KVVG observed 23 July 2017  23:10 UTC
Temperature: 26.0°C (79°F)
Dewpoint: 24.0°C (75°F) [RH = 89%]
Pressure (altimeter): 29.90 inches Hg (1012.6 mb)
Winds: calm
Visibility: 10 or more miles (16+ km)
Ceiling: unknown
Clouds: missing
Present Weather: automated observation with no human augmentation;
there may or may not be significant weather present at this time
KVVG 232310Z AUTO 00000KT 10SM 26/24 A2990 RMK A01

Conditions at: KVVG observed 23 July 2017  22:50 UTC
Temperature: 26.0°C (79°F)
Dewpoint: 24.0°C (75°F) [RH = 89%]
Pressure (altimeter): 29.89 inches Hg (1012.3 mb)
Winds: calm
Visibility: 10 or more miles (16+ km)
Ceiling: unknown
Clouds: missing
Present Weather: automated observation with no human augmentation;
there may or may not be significant weather present at this time
KVVG 232250Z AUTO 00000KT 10SM 26/24 A2989 RMK A01

Conditions at: KVVG observed 23 July 2017  22:30 UTC
Temperature: 26.0°C (79°F)
Dewpoint: 24.0°C (75°F) [RH = 89%]
Pressure (altimeter): 29.89 inches Hg (1012.3 mb)
Winds: calm
Visibility: 10 or more miles (16+ km)
Ceiling: unknown
Clouds: missing
Present Weather: automated observation with no human augmentation;
there may or may not be significant weather present at this time
KVVG 232230Z AUTO 00000KT 10SM 26/24 A2989 RMK A01

Conditions at: KVVG observed 23 July 2017  22:10 UTC
Temperature: 26.0°C (79°F)
Dewpoint: 24.0°C (75°F) [RH = 89%]
Pressure (altimeter): 29.90 inches Hg (1012.6 mb)
Winds: calm
Visibility: 10 or more miles (16+ km)
Ceiling: unknown
Clouds: missing
Present Weather: automated observation with no human augmentation;
there may or may not be significant weather present at this time
KVVG 232210Z AUTO 00000KT 10SM 26/24 A2990 RMK A01

Conditions at: KVVG observed 23 July 2017  21:50 UTC
Temperature: 26.0°C (79°F)
Dewpoint: 25.0°C (77°F) [RH = 94%]
Pressure (altimeter): 29.91 inches Hg (1013.0 mb)
Winds: calm
Visibility: 10 or more miles (16+ km)
Ceiling: unknown
Clouds: missing
Present Weather: automated observation with no human augmentation;
there may or may not be significant weather present at this time
KVVG 232150Z AUTO 00000KT 10SM 26/25 A2991 RMK A01

Conditions at: KVVG observed 23 July 2017  21:30 UTC
Temperature: 27.0°C (81°F)
Dewpoint: 25.0°C (77°F) [RH = 89%]
Pressure (altimeter): 29.92 inches Hg (1013.3 mb)
Winds: calm
Visibility: 10 or more miles (16+ km)
Ceiling: unknown
Clouds: missing
Present Weather: automated observation with no human augmentation;
there may or may not be significant weather present at this time
KVVG 232130Z AUTO 00000KT 10SM 27/25 A2992 RMK A01

Conditions at: KVVG observed 23 July 2017  21:10 UTC
Temperature: 27.0°C (81°F)
Dewpoint: 25.0°C (77°F) [RH = 89%]
Pressure (altimeter): 29.93 inches Hg (1013.6 mb)
Winds: missing
Visibility: 10 or more miles (16+ km)
Ceiling: unknown
Clouds: missing
Present Weather: automated observation with no human augmentation;
there may or may not be significant weather present at this time
KVVG 232110Z AUTO 10SM 27/25 A2993 RMK A01

Conditions at: KVVG observed 23 July 2017  20:50 UTC
Temperature: 27.0°C (81°F)
Dewpoint: 25.0°C (77°F) [RH = 89%]
Pressure (altimeter): 29.93 inches Hg (1013.6 mb)
Winds: from the SE (140 degrees) at 6 MPH (5 knots; 2.6 m/s)
Visibility: 10 or more miles (16+ km)
Ceiling: unknown
Clouds: missing
Present Weather: automated observation with no human augmentation;
there may or may not be significant weather present at this time
KVVG 232050Z AUTO 14005KT 10SM 27/25 A2993 RMK A01

Conditions at: KVVG observed 23 July 2017  20:30 UTC
Temperature: 27.0°C (81°F)
Dewpoint: 25.0°C (77°F) [RH = 89%]
Pressure (altimeter): 29.95 inches Hg (1014.3 mb)
Winds: calm
Visibility: 10 or more miles (16+ km)
Ceiling: unknown
Clouds: missing
Present Weather: automated observation with no human augmentation;
there may or may not be significant weather present at this time
KVVG 232030Z AUTO 00000KT 10SM 27/25 A2995 RMK A01

Conditions at: KVVG observed 23 July 2017  20:10 UTC
Temperature: 27.0°C (81°F)
Dewpoint: 25.0°C (77°F) [RH = 89%]
Pressure (altimeter): 29.95 inches Hg (1014.3 mb)
Winds: from the SE (140 degrees) at 5 MPH (4 knots; 2.1 m/s)
Visibility: 10 or more miles (16+ km)
Ceiling: unknown
Clouds: missing
Present Weather: automated observation with no human augmentation;
there may or may not be significant weather present at this time
KVVG 232010Z AUTO 14004KT 10SM 27/25 A2995 RMK A01

Conditions at: KVVG observed 23 July 2017  19:50 UTC
Temperature: 26.0°C (79°F)
Dewpoint: 25.0°C (77°F) [RH = 94%]
Pressure (altimeter): 29.95 inches Hg (1014.3 mb)
Winds: from the SSE (150 degrees) at 3 MPH (3 knots; 1.6 m/s)
Visibility: 10 or more miles (16+ km)
Ceiling: unknown
Clouds: missing
Present Weather: automated observation with no human augmentation;
there may or may not be significant weather present at this time
KVVG 231950Z AUTO 15003KT 10SM 26/25 A2995 RMK A01

Conditions at: KVVG observed 23 July 2017  19:30 UTC
Temperature: 26.0°C (79°F)
Dewpoint: 25.0°C (77°F) [RH = 94%]
Pressure (altimeter): 29.95 inches Hg (1014.3 mb)
Winds: calm
Visibility: 10 or more miles (16+ km)
Ceiling: unknown
Clouds: missing
Present Weather: automated observation with no human augmentation;
there may or may not be significant weather present at this time
KVVG 231930Z AUTO 00000KT 10SM 26/25 A2995 RMK A01

Conditions at: KVVG observed 23 July 2017  19:10 UTC
Temperature: 26.0°C (79°F)
Dewpoint: 25.0°C (77°F) [RH = 94%]
Pressure (altimeter): 29.95 inches Hg (1014.3 mb)
Winds: missing
Visibility: 10 or more miles (16+ km)
Ceiling: unknown
Clouds: missing
Present Weather: automated observation with no human augmentation;
there may or may not be significant weather present at this time
KVVG 231910Z AUTO 10SM 26/25 A2995 RMK A01

Conditions at: KVVG observed 23 July 2017  18:50 UTC
Temperature: 27.0°C (81°F)
Dewpoint: 24.0°C (75°F) [RH = 84%]
Pressure (altimeter): 29.95 inches Hg (1014.3 mb)
Winds: missing
Visibility: 10 or more miles (16+ km)
Ceiling: unknown
Clouds: missing
Present Weather: automated observation with no human augmentation;
there may or may not be significant weather present at this time
KVVG 231850Z AUTO 10SM 27/24 A2995 RMK A01

Conditions at: KVVG observed 23 July 2017  18:30 UTC
Temperature: 27.0°C (81°F)
Dewpoint: 25.0°C (77°F) [RH = 89%]
Pressure (altimeter): 29.95 inches Hg (1014.3 mb)
Winds: missing
Visibility: 10 or more miles (16+ km)
Ceiling: unknown
Clouds: missing
Present Weather: automated observation with no human augmentation;
there may or may not be significant weather present at this time
KVVG 231830Z AUTO 10SM 27/25 A2995 RMK A01

Conditions at: KVVG observed 23 July 2017  18:10 UTC
Temperature: 26.0°C (79°F)
Dewpoint: 25.0°C (77°F) [RH = 94%]
Pressure (altimeter): 29.95 inches Hg (1014.3 mb)
Winds: calm
Visibility: 10 or more miles (16+ km)
Ceiling: unknown
Clouds: missing
Present Weather: automated observation with no human augmentation;
there may or may not be significant weather present at this time
KVVG 231810Z AUTO 00000KT 10SM 26/25 A2995 RMK A01

Conditions at: KVVG observed 23 July 2017  17:50 UTC
Temperature: 26.0°C (79°F)
Dewpoint: 25.0°C (77°F) [RH = 94%]
Pressure (altimeter): 29.96 inches Hg (1014.6 mb)
Winds: calm
Visibility: 10 or more miles (16+ km)
Ceiling: unknown
Clouds: missing
Present Weather: automated observation with no human augmentation;
there may or may not be significant weather present at this time
KVVG 231750Z AUTO 00000KT 10SM 26/25 A2996 RMK A01

Conditions at: KVVG observed 23 July 2017  17:30 UTC
Temperature: 26.0°C (79°F)
Dewpoint: 25.0°C (77°F) [RH = 94%]
Pressure (altimeter): 29.97 inches Hg (1015.0 mb)
Winds: missing
Visibility: 10 or more miles (16+ km)
Ceiling: unknown
Clouds: missing
Present Weather: automated observation with no human augmentation;
there may or may not be significant weather present at this time
KVVG 231730Z AUTO 10SM 26/25 A2997 RMK A01

Conditions at: KVVG observed 23 July 2017  17:10 UTC
Temperature: 26.0°C (79°F)
Dewpoint: 25.0°C (77°F) [RH = 94%]
Pressure (altimeter): 29.99 inches Hg (1015.7 mb)
Winds: missing
Visibility: 10 or more miles (16+ km)
Ceiling: unknown
Clouds: missing
Present Weather: automated observation with no human augmentation;
there may or may not be significant weather present at this time
KVVG 231710Z AUTO 10SM 26/25 A2999 RMK A01

Conditions at: KVVG observed 23 July 2017  16:50 UTC
Temperature: 25.0°C (77°F)
Dewpoint: 25.0°C (77°F) [RH = 100%]
Pressure (altimeter): 30.00 inches Hg (1016.0 mb)
Winds: missing
Visibility: 10 or more miles (16+ km)
Ceiling: unknown
Clouds: missing
Present Weather: automated observation with no human augmentation;
there may or may not be significant weather present at this time
KVVG 231650Z AUTO 10SM 25/25 A3000 RMK A01

Conditions at: KVVG observed 23 July 2017  16:30 UTC
Temperature: 25.0°C (77°F)
Dewpoint: 25.0°C (77°F) [RH = 100%]
Pressure (altimeter): 30.01 inches Hg (1016.3 mb)
Winds: calm
Visibility: 10 or more miles (16+ km)
Ceiling: unknown
Clouds: missing
Present Weather: automated observation with no human augmentation;
there may or may not be significant weather present at this time
KVVG 231630Z AUTO 00000G10KT 10SM 25/25 A3001 RMK A01

Conditions at: KVVG observed 23 July 2017  16:10 UTC
Temperature: 25.0°C (77°F)
Dewpoint: 25.0°C (77°F) [RH = 100%]
Pressure (altimeter): 30.01 inches Hg (1016.3 mb)
Winds: calm
Visibility: 10 or more miles (16+ km)
Ceiling: unknown
Clouds: missing
Present Weather: automated observation with no human augmentation;
there may or may not be significant weather present at this time
KVVG 231610Z AUTO 00000KT 10SM 25/25 A3001 RMK A01

Conditions at: KVVG observed 23 July 2017  15:50 UTC
Temperature: 25.0°C (77°F)
Dewpoint: 25.0°C (77°F) [RH = 100%]
Pressure (altimeter): 30.00 inches Hg (1016.0 mb)
Winds: from the ESE (120 degrees) at 7 MPH (6 knots; 3.1 m/s)
Visibility: 10 or more miles (16+ km)
Ceiling: unknown
Clouds: missing
Present Weather: automated observation with no human augmentation;
there may or may not be significant weather present at this time
KVVG 231550Z AUTO 12006KT 10SM 25/25 A3000 RMK A01

Conditions at: KVVG observed 23 July 2017  15:30 UTC
Temperature: 25.0°C (77°F)
Dewpoint: 25.0°C (77°F) [RH = 100%]
Pressure (altimeter): 30.00 inches Hg (1016.0 mb)
Winds: missing
Visibility: 10 or more miles (16+ km)
Ceiling: unknown
Clouds: missing
Present Weather: automated observation with no human augmentation;
there may or may not be significant weather present at this time
KVVG 231530Z AUTO 10SM 25/25 A3000 RMK A01

Conditions at: KVVG observed 23 July 2017  15:10 UTC
Temperature: 25.0°C (77°F)
Dewpoint: 25.0°C (77°F) [RH = 100%]
Pressure (altimeter): 29.98 inches Hg (1015.3 mb)
Winds: missing
Visibility: 10 or more miles (16+ km)
Ceiling: unknown
Clouds: missing
Present Weather: automated observation with no human augmentation;
there may or may not be significant weather present at this time
KVVG 231510Z AUTO 10SM 25/25 A2998 RMK A01

Conditions at: KVVG observed 23 July 2017  14:50 UTC
Temperature: 24.0°C (75°F)
Dewpoint: 24.0°C (75°F) [RH = 100%]
Pressure (altimeter): 29.98 inches Hg (1015.3 mb)
Winds: missing
Visibility: 10 or more miles (16+ km)
Ceiling: unknown
Clouds: missing
Present Weather: automated observation with no human augmentation;
there may or may not be significant weather present at this time
KVVG 231450Z AUTO 10SM 24/24 A2998 RMK A01

Conditions at: KVVG observed 23 July 2017  14:30 UTC
Temperature: 24.0°C (75°F)
Dewpoint: 24.0°C (75°F) [RH = 100%]
Pressure (altimeter): 29.97 inches Hg (1015.0 mb)
Winds: from the SSE (150 degrees) at 13 MPH (11 knots; 5.7 m/s)
Visibility: 2.00 miles (3.22 km)
Ceiling: unknown
Clouds: missing
Present Weather: BR  (mist)
KVVG 231430Z AUTO 15011KT 2SM BR 24/24 A2997 RMK A01

Conditions at: KVVG observed 23 July 2017  14:10 UTC
Temperature: 26.0°C (79°F)
Dewpoint: 26.0°C (79°F) [RH = 100%]
Pressure (altimeter): 29.97 inches Hg (1015.0 mb)
Winds: missing
Visibility: 10 or more miles (16+ km)
Ceiling: unknown
Clouds: missing
Present Weather: automated observation with no human augmentation;
there may or may not be significant weather present at this time
KVVG 231410Z AUTO 10SM 26/26 A2997 RMK A01

Conditions at: KVVG observed 23 July 2017  13:50 UTC
Temperature: 27.0°C (81°F)
Dewpoint: 27.0°C (81°F) [RH = 100%]
Pressure (altimeter): 29.96 inches Hg (1014.6 mb)
Winds: calm
Visibility: 10 or more miles (16+ km)
Ceiling: unknown
Clouds: missing
Present Weather: automated observation with no human augmentation;
there may or may not be significant weather present at this time
KVVG 231350Z AUTO 00000KT 10SM 27/27 A2996 RMK A01

Conditions at: KVVG observed 23 July 2017  13:30 UTC
Temperature: 27.0°C (81°F)
Dewpoint: 27.0°C (81°F) [RH = 100%]
Pressure (altimeter): 29.96 inches Hg (1014.6 mb)
Winds: from the SW (220 degrees) at 8 MPH (7 knots; 3.6 m/s)
Visibility: 10 or more miles (16+ km)
Ceiling: unknown
Clouds: missing
Present Weather: automated observation with no human augmentation;
there may or may not be significant weather present at this time
KVVG 231330Z AUTO 22007KT 10SM 27/27 A2996 RMK A01

Conditions at: KVVG observed 23 July 2017  13:10 UTC
Temperature: 27.0°C (81°F)
Dewpoint: 27.0°C (81°F) [RH = 100%]
Pressure (altimeter): 29.96 inches Hg (1014.6 mb)
Winds: missing
Visibility: 10 or more miles (16+ km)
Ceiling: unknown
Clouds: missing
Present Weather: automated observation with no human augmentation;
there may or may not be significant weather present at this time
KVVG 231310Z AUTO 10SM 27/27 A2996 RMK A01

Conditions at: KVVG observed 23 July 2017  12:50 UTC
Temperature: 26.0°C (79°F)
Dewpoint: 26.0°C (79°F) [RH = 100%]
Pressure (altimeter): 29.96 inches Hg (1014.6 mb)
Winds: calm
Visibility: missing
Ceiling: unknown
Clouds: missing
Present Weather: automated observation with no human augmentation;
there may or may not be significant weather present at this time
KVVG 231250Z AUTO 00000KT 26/26 A2996 RMK A01

Conditions at: KVVG observed 23 July 2017  12:30 UTC
Temperature: 26.0°C (79°F)
Dewpoint: 26.0°C (79°F) [RH = 100%]
Pressure (altimeter): 29.96 inches Hg (1014.6 mb)
Winds: from the SE (140 degrees) at 3 MPH (3 knots; 1.6 m/s)
Visibility: 10 or more miles (16+ km)
Ceiling: unknown
Clouds: missing
Present Weather: automated observation with no human augmentation;
there may or may not be significant weather present at this time
KVVG 231230Z AUTO 14003KT 10SM 26/26 A2996 RMK A01

Conditions at: KVVG observed 23 July 2017  12:10 UTC
Temperature: 25.0°C (77°F)
Dewpoint: 25.0°C (77°F) [RH = 100%]
Pressure (altimeter): 29.96 inches Hg (1014.6 mb)
Winds: calm
Visibility: 10 or more miles (16+ km)
Ceiling: unknown
Clouds: missing
Present Weather: automated observation with no human augmentation;
there may or may not be significant weather present at this time
KVVG 231210Z AUTO 00000KT 10SM 25/25 A2996 RMK A01

Conditions at: KVVG observed 23 July 2017  11:50 UTC
Temperature: 25.0°C (77°F)
Dewpoint: 25.0°C (77°F) [RH = 100%]
Pressure (altimeter): 29.95 inches Hg (1014.3 mb)
Winds: calm
Visibility: 10 or more miles (16+ km)
Ceiling: unknown
Clouds: missing
Present Weather: automated observation with no human augmentation;
there may or may not be significant weather present at this time
KVVG 231150Z AUTO 00000KT 10SM 25/25 A2995 RMK A01

Conditions at: KVVG observed 23 July 2017  11:30 UTC
Temperature: 25.0°C (77°F)
Dewpoint: 25.0°C (77°F) [RH = 100%]
Pressure (altimeter): 29.94 inches Hg (1014.0 mb)
Winds: calm
Visibility: 10 or more miles (16+ km)
Ceiling: unknown
Clouds: missing
Present Weather: automated observation with no human augmentation;
there may or may not be significant weather present at this time
KVVG 231130Z AUTO 00000KT 10SM 25/25 A2994 RMK A01

Conditions at: KVVG observed 23 July 2017  11:10 UTC
Temperature: 25.0°C (77°F)
Dewpoint: 25.0°C (77°F) [RH = 100%]
Pressure (altimeter): 29.93 inches Hg (1013.6 mb)
Winds: calm
Visibility: 10 or more miles (16+ km)
Ceiling: unknown
Clouds: missing
Present Weather: automated observation with no human augmentation;
there may or may not be significant weather present at this time
KVVG 231110Z AUTO 00000KT 10SM 25/25 A2993 RMK A01

Conditions at: KVVG observed 23 July 2017  10:50 UTC
Temperature: 25.0°C (77°F)
Dewpoint: 25.0°C (77°F) [RH = 100%]
Pressure (altimeter): 29.93 inches Hg (1013.6 mb)
Winds: calm
Visibility: 10 or more miles (16+ km)
Ceiling: unknown
Clouds: missing
Present Weather: automated observation with no human augmentation;
there may or may not be significant weather present at this time
KVVG 231050Z AUTO 00000KT 10SM 25/25 A2993 RMK A01

Conditions at: KVVG observed 23 July 2017  10:30 UTC
Temperature: 25.0°C (77°F)
Dewpoint: 25.0°C (77°F) [RH = 100%]
Pressure (altimeter): 29.92 inches Hg (1013.3 mb)
Winds: calm
Visibility: 10 or more miles (16+ km)
Ceiling: unknown
Clouds: missing
Present Weather: automated observation with no human augmentation;
there may or may not be significant weather present at this time
KVVG 231030Z AUTO 00000KT 10SM 25/25 A2992 RMK A01

Conditions at: KVVG observed 23 July 2017  10:10 UTC
Temperature: 25.0°C (77°F)
Dewpoint: 25.0°C (77°F) [RH = 100%]
Pressure (altimeter): 29.92 inches Hg (1013.3 mb)
Winds: calm
Visibility: 10 or more miles (16+ km)
Ceiling: unknown
Clouds: missing
Present Weather: automated observation with no human augmentation;
there may or may not be significant weather present at this time
KVVG 231010Z AUTO 00000KT 10SM 25/25 A2992 RMK A01

Conditions at: KVVG observed 23 July 2017  09:50 UTC
Temperature: 25.0°C (77°F)
Dewpoint: 25.0°C (77°F) [RH = 100%]
Pressure (altimeter): 29.93 inches Hg (1013.6 mb)
Winds: calm
Visibility: 10 or more miles (16+ km)
Ceiling: unknown
Clouds: missing
Present Weather: automated observation with no human augmentation;
there may or may not be significant weather present at this time
KVVG 230950Z AUTO 00000KT 10SM 25/25 A2993 RMK A01

Conditions at: KVVG observed 23 July 2017  09:30 UTC
Temperature: 25.0°C (77°F)
Dewpoint: 25.0°C (77°F) [RH = 100%]
Pressure (altimeter): 29.92 inches Hg (1013.3 mb)
Winds: calm
Visibility: 10 or more miles (16+ km)
Ceiling: unknown
Clouds: missing
Present Weather: automated observation with no human augmentation;
there may or may not be significant weather present at this time
KVVG 230930Z AUTO 00000KT 10SM 25/25 A2992 RMK A01

Conditions at: KVVG observed 23 July 2017  09:10 UTC
Temperature: 25.0°C (77°F)
Dewpoint: 25.0°C (77°F) [RH = 100%]
Pressure (altimeter): 29.92 inches Hg (1013.3 mb)
Winds: calm
Visibility: 10 or more miles (16+ km)
Ceiling: unknown
Clouds: missing
Present Weather: automated observation with no human augmentation;
there may or may not be significant weather present at this time
KVVG 230910Z AUTO 00000KT 10SM 25/25 A2992 RMK A01

Conditions at: KVVG observed 23 July 2017  08:50 UTC
Temperature: 25.0°C (77°F)
Dewpoint: 25.0°C (77°F) [RH = 100%]
Pressure (altimeter): 29.92 inches Hg (1013.3 mb)
Winds: calm
Visibility: 10 or more miles (16+ km)
Ceiling: unknown
Clouds: missing
Present Weather: automated observation with no human augmentation;
there may or may not be significant weather present at this time
KVVG 230850Z AUTO 00000KT 10SM 25/25 A2992 RMK A01

Conditions at: KVVG observed 23 July 2017  08:30 UTC
Temperature: 25.0°C (77°F)
Dewpoint: 25.0°C (77°F) [RH = 100%]
Pressure (altimeter): 29.91 inches Hg (1013.0 mb)
Winds: missing
Visibility: 10 or more miles (16+ km)
Ceiling: unknown
Clouds: missing
Present Weather: automated observation with no human augmentation;
there may or may not be significant weather present at this time
KVVG 230830Z AUTO 10SM 25/25 A2991 RMK A01

Conditions at: KVVG observed 23 July 2017  08:10 UTC
Temperature: 25.0°C (77°F)
Dewpoint: 25.0°C (77°F) [RH = 100%]
Pressure (altimeter): 29.92 inches Hg (1013.3 mb)
Winds: calm
Visibility: 10 or more miles (16+ km)
Ceiling: unknown
Clouds: missing
Present Weather: automated observation with no human augmentation;
there may or may not be significant weather present at this time
KVVG 230810Z AUTO 00000KT 10SM 25/25 A2992 RMK A01

Conditions at: KVVG observed 23 July 2017  07:50 UTC
Temperature: 25.0°C (77°F)
Dewpoint: 25.0°C (77°F) [RH = 100%]
Pressure (altimeter): 29.91 inches Hg (1013.0 mb)
Winds: calm
Visibility: 10 or more miles (16+ km)
Ceiling: unknown
Clouds: missing
Present Weather: automated observation with no human augmentation;
there may or may not be significant weather present at this time
KVVG 230750Z AUTO 00000KT 10SM 25/25 A2991 RMK A01

Conditions at: KVVG observed 23 July 2017  07:30 UTC
Temperature: 25.0°C (77°F)
Dewpoint: 25.0°C (77°F) [RH = 100%]
Pressure (altimeter): 29.92 inches Hg (1013.3 mb)
Winds: calm
Visibility: 10 or more miles (16+ km)
Ceiling: unknown
Clouds: missing
Present Weather: automated observation with no human augmentation;
there may or may not be significant weather present at this time
KVVG 230730Z AUTO 00000KT 10SM 25/25 A2992 RMK A01

Conditions at: KVVG observed 23 July 2017  07:10 UTC
Temperature: 25.0°C (77°F)
Dewpoint: 25.0°C (77°F) [RH = 100%]
Pressure (altimeter): 29.93 inches Hg (1013.6 mb)
Winds: calm
Visibility: 10 or more miles (16+ km)
Ceiling: unknown
Clouds: missing
Present Weather: automated observation with no human augmentation;
there may or may not be significant weather present at this time
KVVG 230710Z AUTO 00000KT 10SM 25/25 A2993 RMK A01

Conditions at: KVVG observed 23 July 2017  06:50 UTC
Temperature: 25.0°C (77°F)
Dewpoint: 25.0°C (77°F) [RH = 100%]
Pressure (altimeter): 29.93 inches Hg (1013.6 mb)
Winds: calm
Visibility: 10 or more miles (16+ km)
Ceiling: unknown
Clouds: missing
Present Weather: automated observation with no human augmentation;
there may or may not be significant weather present at this time
KVVG 230650Z AUTO 00000KT 10SM 25/25 A2993 RMK A01

Conditions at: KVVG observed 23 July 2017  06:30 UTC
Temperature: 25.0°C (77°F)
Dewpoint: 25.0°C (77°F) [RH = 100%]
Pressure (altimeter): 29.94 inches Hg (1014.0 mb)
Winds: calm
Visibility: 10 or more miles (16+ km)
Ceiling: unknown
Clouds: missing
Present Weather: automated observation with no human augmentation;
there may or may not be significant weather present at this time
KVVG 230630Z AUTO 00000KT 10SM 25/25 A2994 RMK A01

Conditions at: KVVG observed 23 July 2017  06:10 UTC
Temperature: 25.0°C (77°F)
Dewpoint: 25.0°C (77°F) [RH = 100%]
Pressure (altimeter): 29.95 inches Hg (1014.3 mb)
Winds: calm
Visibility: 10 or more miles (16+ km)
Ceiling: unknown
Clouds: missing
Present Weather: automated observation with no human augmentation;
there may or may not be significant weather present at this time
KVVG 230610Z AUTO 00000KT 10SM 25/25 A2995 RMK A01

Conditions at: KVVG observed 23 July 2017  05:50 UTC
Temperature: 25.0°C (77°F)
Dewpoint: 25.0°C (77°F) [RH = 100%]
Pressure (altimeter): 29.95 inches Hg (1014.3 mb)
Winds: calm
Visibility: 10 or more miles (16+ km)
Ceiling: unknown
Clouds: missing
Present Weather: automated observation with no human augmentation;
there may or may not be significant weather present at this time
KVVG 230550Z AUTO 00000KT 10SM 25/25 A2995 RMK A01

Conditions at: KVVG observed 23 July 2017  05:30 UTC
Temperature: 25.0°C (77°F)
Dewpoint: 25.0°C (77°F) [RH = 100%]
Pressure (altimeter): 29.96 inches Hg (1014.6 mb)
Winds: calm
Visibility: 10 or more miles (16+ km)
Ceiling: unknown
Clouds: missing
Present Weather: automated observation with no human augmentation;
there may or may not be significant weather present at this time
KVVG 230530Z AUTO 00000KT 10SM 25/25 A2996 RMK A01

Conditions at: KVVG observed 23 July 2017  05:10 UTC
Temperature: 25.0°C (77°F)
Dewpoint: 25.0°C (77°F) [RH = 100%]
Pressure (altimeter): 29.96 inches Hg (1014.6 mb)
Winds: calm
Visibility: 10 or more miles (16+ km)
Ceiling: unknown
Clouds: missing
Present Weather: automated observation with no human augmentation;
there may or may not be significant weather present at this time
KVVG 230510Z AUTO 00000KT 10SM 25/25 A2996 RMK A01

Conditions at: KVVG observed 23 July 2017  04:50 UTC
Temperature: 25.0°C (77°F)
Dewpoint: 25.0°C (77°F) [RH = 100%]
Pressure (altimeter): 29.96 inches Hg (1014.6 mb)
Winds: calm
Visibility: 10 or more miles (16+ km)
Ceiling: unknown
Clouds: missing
Present Weather: automated observation with no human augmentation;
there may or may not be significant weather present at this time
KVVG 230450Z AUTO 00000KT 10SM 25/25 A2996 RMK A01

Conditions at: KVVG observed 23 July 2017  04:30 UTC
Temperature: 25.0°C (77°F)
Dewpoint: 25.0°C (77°F) [RH = 100%]
Pressure (altimeter): 29.97 inches Hg (1015.0 mb)
Winds: calm
Visibility: 10 or more miles (16+ km)
Ceiling: unknown
Clouds: missing
Present Weather: automated observation with no human augmentation;
there may or may not be significant weather present at this time
KVVG 230430Z AUTO 00000KT 10SM 25/25 A2997 RMK A01

Conditions at: KVVG observed 23 July 2017  04:10 UTC
Temperature: 24.0°C (75°F)
Dewpoint: 24.0°C (75°F) [RH = 100%]
Pressure (altimeter): 29.97 inches Hg (1015.0 mb)
Winds: calm
Visibility: 10 or more miles (16+ km)
Ceiling: unknown
Clouds: missing
Present Weather: automated observation with no human augmentation;
there may or may not be significant weather present at this time
KVVG 230410Z AUTO 00000KT 10SM 24/24 A2997 RMK A01

Conditions at: KVVG observed 23 July 2017  03:50 UTC
Temperature: 24.0°C (75°F)
Dewpoint: 24.0°C (75°F) [RH = 100%]
Pressure (altimeter): 29.97 inches Hg (1015.0 mb)
Winds: calm
Visibility: 10 or more miles (16+ km)
Ceiling: unknown
Clouds: missing
Present Weather: automated observation with no human augmentation;
there may or may not be significant weather present at this time
KVVG 230350Z AUTO 00000KT 10SM 24/24 A2997 RMK A01

Conditions at: KVVG observed 23 July 2017  03:30 UTC
Temperature: 25.0°C (77°F)
Dewpoint: 25.0°C (77°F) [RH = 100%]
Pressure (altimeter): 29.97 inches Hg (1015.0 mb)
Winds: calm
Visibility: 10 or more miles (16+ km)
Ceiling: unknown
Clouds: missing
Present Weather: automated observation with no human augmentation;
there may or may not be significant weather present at this time
KVVG 230330Z AUTO 00000KT 10SM 25/25 A2997 RMK A01

Conditions at: KVVG observed 23 July 2017  03:10 UTC
Temperature: 25.0°C (77°F)
Dewpoint: 25.0°C (77°F) [RH = 100%]
Pressure (altimeter): 29.96 inches Hg (1014.6 mb)
Winds: calm
Visibility: 10 or more miles (16+ km)
Ceiling: unknown
Clouds: missing
Present Weather: automated observation with no human augmentation;
there may or may not be significant weather present at this time
KVVG 230310Z AUTO 00000KT 10SM 25/25 A2996 RMK A01

Conditions at: KVVG observed 23 July 2017  02:50 UTC
Temperature: 25.0°C (77°F)
Dewpoint: 25.0°C (77°F) [RH = 100%]
Pressure (altimeter): 29.96 inches Hg (1014.6 mb)
Winds: calm
Visibility: 10 or more miles (16+ km)
Ceiling: unknown
Clouds: missing
Present Weather: automated observation with no human augmentation;
there may or may not be significant weather present at this time
KVVG 230250Z AUTO 00000KT 10SM 25/25 A2996 RMK A01

Conditions at: KVVG observed 23 July 2017  02:30 UTC
Temperature: 25.0°C (77°F)
Dewpoint: 25.0°C (77°F) [RH = 100%]
Pressure (altimeter): 29.96 inches Hg (1014.6 mb)
Winds: missing
Visibility: 10 or more miles (16+ km)
Ceiling: unknown
Clouds: missing
Present Weather: automated observation with no human augmentation;
there may or may not be significant weather present at this time
KVVG 230230Z AUTO 10SM 25/25 A2996 RMK A01

Conditions at: KVVG observed 23 July 2017  02:10 UTC
Temperature: 25.0°C (77°F)
Dewpoint: 25.0°C (77°F) [RH = 100%]
Pressure (altimeter): 29.95 inches Hg (1014.3 mb)
Winds: missing
Visibility: 10 or more miles (16+ km)
Ceiling: unknown
Clouds: missing
Present Weather: automated observation with no human augmentation;
there may or may not be significant weather present at this time
KVVG 230210Z AUTO 10SM 25/25 A2995 RMK A01

Conditions at: KVVG observed 23 July 2017  01:50 UTC
Temperature: 25.0°C (77°F)
Dewpoint: 25.0°C (77°F) [RH = 100%]
Pressure (altimeter): 29.94 inches Hg (1014.0 mb)
Winds: calm
Visibility: 10 or more miles (16+ km)
Ceiling: unknown
Clouds: missing
Present Weather: automated observation with no human augmentation;
there may or may not be significant weather present at this time
KVVG 230150Z AUTO 00000KT 10SM 25/25 A2994 RMK A01

Conditions at: KVVG observed 23 July 2017  01:30 UTC
Temperature: 25.0°C (77°F)
Dewpoint: 25.0°C (77°F) [RH = 100%]
Pressure (altimeter): 29.94 inches Hg (1014.0 mb)
Winds: calm
Visibility: 10 or more miles (16+ km)
Ceiling: unknown
Clouds: missing
Present Weather: automated observation with no human augmentation;
there may or may not be significant weather present at this time
KVVG 230130Z AUTO 00000KT 10SM 25/25 A2994 RMK A01

Conditions at: KVVG observed 23 July 2017  01:10 UTC
Temperature: 25.0°C (77°F)
Dewpoint: 25.0°C (77°F) [RH = 100%]
Pressure (altimeter): 29.94 inches Hg (1014.0 mb)
Winds: calm
Visibility: 10 or more miles (16+ km)
Ceiling: unknown
Clouds: missing
Present Weather: automated observation with no human augmentation;
there may or may not be significant weather present at this time
KVVG 230110Z AUTO 00000KT 10SM 25/25 A2994 RMK A01

Conditions at: KVVG observed 23 July 2017  00:50 UTC
Temperature: 25.0°C (77°F)
Dewpoint: 25.0°C (77°F) [RH = 100%]
Pressure (altimeter): 29.94 inches Hg (1014.0 mb)
Winds: calm
Visibility: 10 or more miles (16+ km)
Ceiling: unknown
Clouds: missing
Present Weather: automated observation with no human augmentation;
there may or may not be significant weather present at this time
KVVG 230050Z AUTO 00000KT 10SM 25/25 A2994 RMK A01

Conditions at: KVVG observed 23 July 2017  00:30 UTC
Temperature: 25.0°C (77°F)
Dewpoint: 25.0°C (77°F) [RH = 100%]
Pressure (altimeter): 29.94 inches Hg (1014.0 mb)
Winds: calm
Visibility: 10 or more miles (16+ km)
Ceiling: unknown
Clouds: missing
Present Weather: automated observation with no human augmentation;
there may or may not be significant weather present at this time
KVVG 230030Z AUTO 00000KT 10SM 25/25 A2994 RMK A01

Conditions at: KVVG observed 23 July 2017  00:10 UTC
Temperature: 25.0°C (77°F)
Dewpoint: 25.0°C (77°F) [RH = 100%]
Pressure (altimeter): 29.94 inches Hg (1014.0 mb)
Winds: from the ESE (110 degrees) at 3 MPH (3 knots; 1.6 m/s)
Visibility: 10 or more miles (16+ km)
Ceiling: unknown
Clouds: missing
Present Weather: automated observation with no human augmentation;
there may or may not be significant weather present at this time
KVVG 230010Z AUTO 11003KT 10SM 25/25 A2994 RMK A01

Conditions at: KVVG observed 22 July 2017  23:50 UTC
Temperature: 26.0°C (79°F)
Dewpoint: 26.0°C (79°F) [RH = 100%]
Pressure (altimeter): 29.94 inches Hg (1014.0 mb)
Winds: calm
Visibility: 10 or more miles (16+ km)
Ceiling: unknown
Clouds: missing
Present Weather: automated observation with no human augmentation;
there may or may not be significant weather present at this time
KVVG 222350Z AUTO 00000KT 10SM 26/26 A2994 RMK A01

Conditions at: KVVG observed 22 July 2017  23:30 UTC
Temperature: 25.0°C (77°F)
Dewpoint: 25.0°C (77°F) [RH = 100%]
Pressure (altimeter): 29.94 inches Hg (1014.0 mb)
Winds: calm
Visibility: 10 or more miles (16+ km)
Ceiling: unknown
Clouds: missing
Present Weather: automated observation with no human augmentation;
there may or may not be significant weather present at this time
KVVG 222330Z AUTO 00000KT 10SM 25/25 A2994 RMK A01

Conditions at: KVVG observed 22 July 2017  23:10 UTC
Temperature: 25.0°C (77°F)
Dewpoint: 25.0°C (77°F) [RH = 100%]
Pressure (altimeter): 29.94 inches Hg (1014.0 mb)
Winds: calm
Visibility: 10 or more miles (16+ km)
Ceiling: unknown
Clouds: missing
Present Weather: automated observation with no human augmentation;
there may or may not be significant weather present at this time
KVVG 222310Z AUTO 00000KT 10SM 25/25 A2994 RMK A01

Conditions at: KVVG observed 22 July 2017  22:50 UTC
Temperature: 25.0°C (77°F)
Dewpoint: 25.0°C (77°F) [RH = 100%]
Pressure (altimeter): 29.95 inches Hg (1014.3 mb)
Winds: calm
Visibility: 10 or more miles (16+ km)
Ceiling: unknown
Clouds: missing
Present Weather: automated observation with no human augmentation;
there may or may not be significant weather present at this time
KVVG 222250Z AUTO 00000KT 10SM 25/25 A2995 RMK A01

Conditions at: KVVG observed 22 July 2017  22:30 UTC
Temperature: 25.0°C (77°F)
Dewpoint: 25.0°C (77°F) [RH = 100%]
Pressure (altimeter): 29.96 inches Hg (1014.6 mb)
Winds: calm
Visibility: 10 or more miles (16+ km)
Ceiling: unknown
Clouds: missing
Present Weather: automated observation with no human augmentation;
there may or may not be significant weather present at this time
KVVG 222230Z AUTO 00000KT 10SM 25/25 A2996 RMK A01

Conditions at: KVVG observed 22 July 2017  22:10 UTC
Temperature: 25.0°C (77°F)
Dewpoint: 25.0°C (77°F) [RH = 100%]
Pressure (altimeter): 29.96 inches Hg (1014.6 mb)
Winds: calm
Visibility: 10 or more miles (16+ km)
Ceiling: unknown
Clouds: missing
Present Weather: automated observation with no human augmentation;
there may or may not be significant weather present at this time
KVVG 222210Z AUTO 00000KT 10SM 25/25 A2996 RMK A01

Conditions at: KVVG observed 22 July 2017  21:50 UTC
Temperature: 25.0°C (77°F)
Dewpoint: 25.0°C (77°F) [RH = 100%]
Pressure (altimeter): 29.97 inches Hg (1015.0 mb)
Winds: missing
Visibility: 10 or more miles (16+ km)
Ceiling: unknown
Clouds: missing
Present Weather: automated observation with no human augmentation;
there may or may not be significant weather present at this time
KVVG 222150Z AUTO 10SM 25/25 A2997 RMK A01

Conditions at: KVVG observed 22 July 2017  21:30 UTC
Temperature: 25.0°C (77°F)
Dewpoint: 25.0°C (77°F) [RH = 100%]
Pressure (altimeter): 29.97 inches Hg (1015.0 mb)
Winds: calm
Visibility: 10 or more miles (16+ km)
Ceiling: unknown
Clouds: missing
Present Weather: automated observation with no human augmentation;
there may or may not be significant weather present at this time
KVVG 222130Z AUTO 00000KT 10SM 25/25 A2997 RMK A01

Conditions at: KVVG observed 22 July 2017  21:10 UTC
Temperature: 25.0°C (77°F)
Dewpoint: 25.0°C (77°F) [RH = 100%]
Pressure (altimeter): 29.97 inches Hg (1015.0 mb)
Winds: calm
Visibility: 10 or more miles (16+ km)
Ceiling: unknown
Clouds: missing
Present Weather: automated observation with no human augmentation;
there may or may not be significant weather present at this time
KVVG 222110Z AUTO 00000KT 10SM 25/25 A2997 RMK A01

Conditions at: KVVG observed 22 July 2017  20:50 UTC
Temperature: 25.0°C (77°F)
Dewpoint: 25.0°C (77°F) [RH = 100%]
Pressure (altimeter): 29.97 inches Hg (1015.0 mb)
Winds: calm
Visibility: 10 or more miles (16+ km)
Ceiling: unknown
Clouds: missing
Present Weather: automated observation with no human augmentation;
there may or may not be significant weather present at this time
KVVG 222050Z AUTO 00000KT 10SM 25/25 A2997 RMK A01

Conditions at: KVVG observed 22 July 2017  20:30 UTC
Temperature: 25.0°C (77°F)
Dewpoint: 25.0°C (77°F) [RH = 100%]
Pressure (altimeter): 29.97 inches Hg (1015.0 mb)
Winds: calm
Visibility: 10 or more miles (16+ km)
Ceiling: unknown
Clouds: missing
Present Weather: automated observation with no human augmentation;
there may or may not be significant weather present at this time
KVVG 222030Z AUTO 00000KT 10SM 25/25 A2997 RMK A01

Conditions at: KVVG observed 22 July 2017  20:10 UTC
Temperature: 25.0°C (77°F)
Dewpoint: 25.0°C (77°F) [RH = 100%]
Pressure (altimeter): 29.96 inches Hg (1014.6 mb)
Winds: calm
Visibility: 10 or more miles (16+ km)
Ceiling: unknown
Clouds: missing
Present Weather: automated observation with no human augmentation;
there may or may not be significant weather present at this time
KVVG 222010Z AUTO 00000KT 10SM 25/25 A2996 RMK A01

Conditions at: KVVG observed 22 July 2017  19:50 UTC
Temperature: 25.0°C (77°F)
Dewpoint: 25.0°C (77°F) [RH = 100%]
Pressure (altimeter): 29.97 inches Hg (1015.0 mb)
Winds: calm
Visibility: 10 or more miles (16+ km)
Ceiling: unknown
Clouds: missing
Present Weather: automated observation with no human augmentation;
there may or may not be significant weather present at this time
KVVG 221950Z AUTO 00000KT 10SM 25/25 A2997 RMK A01

Conditions at: KVVG observed 22 July 2017  19:30 UTC
Temperature: 24.0°C (75°F)
Dewpoint: 24.0°C (75°F) [RH = 100%]
Pressure (altimeter): 29.96 inches Hg (1014.6 mb)
Winds: calm
Visibility: missing
Ceiling: unknown
Clouds: missing
Present Weather: automated observation with no human augmentation;
there may or may not be significant weather present at this time
KVVG 221930Z AUTO 00000KT 24/24 A2996 RMK A01

Conditions at: KVVG observed 22 July 2017  19:10 UTC
Temperature: 24.0°C (75°F)
Dewpoint: 24.0°C (75°F) [RH = 100%]
Pressure (altimeter): 29.97 inches Hg (1015.0 mb)
Winds: calm
Visibility: 10 or more miles (16+ km)
Ceiling: unknown
Clouds: missing
Present Weather: automated observation with no human augmentation;
there may or may not be significant weather present at this time
KVVG 221910Z AUTO 00000KT 10SM 24/24 A2997 RMK A01

Conditions at: KVVG observed 22 July 2017  18:50 UTC
Temperature: 24.0°C (75°F)
Dewpoint: 24.0°C (75°F) [RH = 100%]
Pressure (altimeter): 29.98 inches Hg (1015.3 mb)
Winds: calm
Visibility: 10 or more miles (16+ km)
Ceiling: unknown
Clouds: missing
Present Weather: automated observation with no human augmentation;
there may or may not be significant weather present at this time
KVVG 221850Z AUTO 00000KT 10SM 24/24 A2998 RMK A01

Conditions at: KVVG observed 22 July 2017  18:30 UTC
Temperature: 25.0°C (77°F)
Dewpoint: 25.0°C (77°F) [RH = 100%]
Pressure (altimeter): 30.00 inches Hg (1016.0 mb)
Winds: calm
Visibility: 10 or more miles (16+ km)
Ceiling: unknown
Clouds: missing
Present Weather: automated observation with no human augmentation;
there may or may not be significant weather present at this time
KVVG 221830Z AUTO 00000KT 10SM 25/25 A3000 RMK A01

Conditions at: KVVG observed 22 July 2017  18:10 UTC
Temperature: 24.0°C (75°F)
Dewpoint: 24.0°C (75°F) [RH = 100%]
Pressure (altimeter): 29.99 inches Hg (1015.7 mb)
Winds: calm
Visibility: 10 or more miles (16+ km)
Ceiling: unknown
Clouds: missing
Present Weather: automated observation with no human augmentation;
there may or may not be significant weather present at this time
KVVG 221810Z AUTO 00000KT 10SM 24/24 A2999 RMK A01

Conditions at: KVVG observed 22 July 2017  17:50 UTC
Temperature: 24.0°C (75°F)
Dewpoint: 24.0°C (75°F) [RH = 100%]
Pressure (altimeter): 30.00 inches Hg (1016.0 mb)
Winds: missing
Visibility: 10 or more miles (16+ km)
Ceiling: unknown
Clouds: missing
Present Weather: automated observation with no human augmentation;
there may or may not be significant weather present at this time
KVVG 221750Z AUTO 10SM 24/24 A3000 RMK A01

Conditions at: KVVG observed 22 July 2017  17:30 UTC
Temperature: 25.0°C (77°F)
Dewpoint: 24.0°C (75°F) [RH = 94%]
Pressure (altimeter): 29.99 inches Hg (1015.7 mb)
Winds: missing
Visibility: 10 or more miles (16+ km)
Ceiling: unknown
Clouds: missing
Present Weather: automated observation with no human augmentation;
there may or may not be significant weather present at this time
KVVG 221730Z AUTO 10SM 25/24 A2999 RMK A01

Conditions at: KVVG observed 22 July 2017  17:10 UTC
Temperature: 26.0°C (79°F)
Dewpoint: 25.0°C (77°F) [RH = 94%]
Pressure (altimeter): 30.02 inches Hg (1016.7 mb)
Winds: from the SSE (160 degrees) at 8 MPH (7 knots; 3.6 m/s)
Visibility: 10 or more miles (16+ km)
Ceiling: unknown
Clouds: missing
Present Weather: automated observation with no human augmentation;
there may or may not be significant weather present at this time
KVVG 221710Z AUTO 16007KT 10SM 26/25 A3002 RMK A01

Conditions at: KVVG observed 22 July 2017  16:50 UTC
Temperature: 26.0°C (79°F)
Dewpoint: 26.0°C (79°F) [RH = 100%]
Pressure (altimeter): 29.98 inches Hg (1015.3 mb)
Winds: calm
Visibility: 10 or more miles (16+ km)
Ceiling: unknown
Clouds: missing
Present Weather: automated observation with no human augmentation;
there may or may not be significant weather present at this time
KVVG 221650Z AUTO 00000KT 10SM 26/26 A2998 RMK A01

Conditions at: KVVG observed 22 July 2017  16:30 UTC
Temperature: 25.0°C (77°F)
Dewpoint: 24.0°C (75°F) [RH = 94%]
Pressure (altimeter): 29.98 inches Hg (1015.3 mb)
Winds: calm
Visibility: 0.75 miles (1.21 km)
Ceiling: unknown
Clouds: missing
Present Weather: BR  (mist)
KVVG 221630Z AUTO 00000G14KT 3/4SM BR 25/24 A2998 RMK A01

Conditions at: KVVG observed 22 July 2017  16:10 UTC
Temperature: 31.0°C (88°F)
Dewpoint: 25.0°C (77°F) [RH = 71%]
Pressure (altimeter): 29.98 inches Hg (1015.3 mb)
Winds: missing
Visibility: 10 or more miles (16+ km)
Ceiling: unknown
Clouds: missing
Present Weather: automated observation with no human augmentation;
there may or may not be significant weather present at this time
KVVG 221610Z AUTO 10SM 31/25 A2998 RMK A01

Conditions at: KVVG observed 22 July 2017  15:50 UTC
Temperature: 32.0°C (90°F)
Dewpoint: 26.0°C (79°F) [RH = 71%]
Pressure (altimeter): 29.98 inches Hg (1015.3 mb)
Winds: calm
Visibility: 10 or more miles (16+ km)
Ceiling: unknown
Clouds: missing
Present Weather: automated observation with no human augmentation;
there may or may not be significant weather present at this time
KVVG 221550Z AUTO 00000KT 10SM 32/26 A2998 RMK A01

Conditions at: KVVG observed 22 July 2017  15:30 UTC
Temperature: 30.0°C (86°F)
Dewpoint: 26.0°C (79°F) [RH = 79%]
Pressure (altimeter): 29.98 inches Hg (1015.3 mb)
Winds: missing
Visibility: 10 or more miles (16+ km)
Ceiling: unknown
Clouds: missing
Present Weather: automated observation with no human augmentation;
there may or may not be significant weather present at this time
KVVG 221530Z AUTO 10SM 30/26 A2998 RMK A01

Conditions at: KVVG observed 22 July 2017  15:10 UTC
Temperature: 31.0°C (88°F)
Dewpoint: 27.0°C (81°F) [RH = 79%]
Pressure (altimeter): 29.99 inches Hg (1015.7 mb)
Winds: missing
Visibility: 10 or more miles (16+ km)
Ceiling: unknown
Clouds: missing
Present Weather: automated observation with no human augmentation;
there may or may not be significant weather present at this time
KVVG 221510Z AUTO 10SM 31/27 A2999 RMK A01

Conditions at: KVVG observed 22 July 2017  14:50 UTC
Temperature: 31.0°C (88°F)
Dewpoint: 27.0°C (81°F) [RH = 79%]
Pressure (altimeter): 29.99 inches Hg (1015.7 mb)
Winds: missing
Visibility: 10 or more miles (16+ km)
Ceiling: unknown
Clouds: missing
Present Weather: automated observation with no human augmentation;
there may or may not be significant weather present at this time
KVVG 221450Z AUTO 10SM 31/27 A2999 RMK A01

Conditions at: KVVG observed 22 July 2017  14:30 UTC
Temperature: 30.0°C (86°F)
Dewpoint: 27.0°C (81°F) [RH = 84%]
Pressure (altimeter): 29.99 inches Hg (1015.7 mb)
Winds: missing
Visibility: 10 or more miles (16+ km)
Ceiling: unknown
Clouds: missing
Present Weather: automated observation with no human augmentation;
there may or may not be significant weather present at this time
KVVG 221430Z AUTO 10SM 30/27 A2999 RMK A01

Conditions at: KVVG observed 22 July 2017  14:10 UTC
Temperature: 30.0°C (86°F)
Dewpoint: 27.0°C (81°F) [RH = 84%]
Pressure (altimeter): 30.00 inches Hg (1016.0 mb)
Winds: calm
Visibility: 10 or more miles (16+ km)
Ceiling: unknown
Clouds: missing
Present Weather: automated observation with no human augmentation;
there may or may not be significant weather present at this time
KVVG 221410Z AUTO 00000KT 10SM 30/27 A3000 RMK A01

Conditions at: KVVG observed 22 July 2017  13:50 UTC
Temperature: 29.0°C (84°F)
Dewpoint: 27.0°C (81°F) [RH = 89%]
Pressure (altimeter): 30.00 inches Hg (1016.0 mb)
Winds: missing
Visibility: 10 or more miles (16+ km)
Ceiling: unknown
Clouds: missing
Present Weather: automated observation with no human augmentation;
there may or may not be significant weather present at this time
KVVG 221350Z AUTO 10SM 29/27 A3000 RMK A01

Conditions at: KVVG observed 22 July 2017  13:30 UTC
Temperature: 29.0°C (84°F)
Dewpoint: 28.0°C (82°F) [RH = 94%]
Pressure (altimeter): 30.01 inches Hg (1016.3 mb)
Winds: calm
Visibility: 10 or more miles (16+ km)
Ceiling: unknown
Clouds: missing
Present Weather: automated observation with no human augmentation;
there may or may not be significant weather present at this time
KVVG 221330Z AUTO 00000KT 10SM 29/28 A3001 RMK A01

Conditions at: KVVG observed 22 July 2017  13:10 UTC
Temperature: 28.0°C (82°F)
Dewpoint: 28.0°C (82°F) [RH = 100%]
Pressure (altimeter): 30.01 inches Hg (1016.3 mb)
Winds: calm
Visibility: 10 or more miles (16+ km)
Ceiling: unknown
Clouds: missing
Present Weather: automated observation with no human augmentation;
there may or may not be significant weather present at this time
KVVG 221310Z AUTO 00000KT 10SM 28/28 A3001 RMK A01

Conditions at: KVVG observed 22 July 2017  12:50 UTC
Temperature: 28.0°C (82°F)
Dewpoint: 28.0°C (82°F) [RH = 100%]
Pressure (altimeter): 30.00 inches Hg (1016.0 mb)
Winds: calm
Visibility: 10 or more miles (16+ km)
Ceiling: unknown
Clouds: missing
Present Weather: automated observation with no human augmentation;
there may or may not be significant weather present at this time
KVVG 221250Z AUTO 00000KT 10SM 28/28 A3000 RMK A01

Conditions at: KVVG observed 22 July 2017  12:30 UTC
Temperature: 27.0°C (81°F)
Dewpoint: 27.0°C (81°F) [RH = 100%]
Pressure (altimeter): 29.99 inches Hg (1015.7 mb)
Winds: calm
Visibility: 10 or more miles (16+ km)
Ceiling: unknown
Clouds: missing
Present Weather: automated observation with no human augmentation;
there may or may not be significant weather present at this time
KVVG 221230Z AUTO 00000KT 10SM 27/27 A2999 RMK A01

Conditions at: KVVG observed 22 July 2017  12:10 UTC
Temperature: 26.0°C (79°F)
Dewpoint: 26.0°C (79°F) [RH = 100%]
Pressure (altimeter): 29.98 inches Hg (1015.3 mb)
Winds: missing
Visibility: 10 or more miles (16+ km)
Ceiling: unknown
Clouds: missing
Present Weather: automated observation with no human augmentation;
there may or may not be significant weather present at this time
KVVG 221210Z AUTO 10SM 26/26 A2998 RMK A01

Conditions at: KVVG observed 22 July 2017  11:50 UTC
Temperature: 25.0°C (77°F)
Dewpoint: 25.0°C (77°F) [RH = 100%]
Pressure (altimeter): 29.98 inches Hg (1015.3 mb)
Winds: calm
Visibility: 10 or more miles (16+ km)
Ceiling: unknown
Clouds: missing
Present Weather: automated observation with no human augmentation;
there may or may not be significant weather present at this time
KVVG 221150Z AUTO 00000KT 10SM 25/25 A2998 RMK A01

Conditions at: KVVG observed 22 July 2017  11:30 UTC
Temperature: 24.0°C (75°F)
Dewpoint: 24.0°C (75°F) [RH = 100%]
Pressure (altimeter): 29.98 inches Hg (1015.3 mb)
Winds: calm
Visibility: 10 or more miles (16+ km)
Ceiling: unknown
Clouds: missing
Present Weather: automated observation with no human augmentation;
there may or may not be significant weather present at this time
KVVG 221130Z AUTO 00000KT 10SM 24/24 A2998 RMK A01

Conditions at: KVVG observed 22 July 2017  11:10 UTC
Temperature: 24.0°C (75°F)
Dewpoint: 24.0°C (75°F) [RH = 100%]
Pressure (altimeter): 29.97 inches Hg (1015.0 mb)
Winds: calm
Visibility: 10 or more miles (16+ km)
Ceiling: unknown
Clouds: missing
Present Weather: automated observation with no human augmentation;
there may or may not be significant weather present at this time
KVVG 221110Z AUTO 00000KT 10SM 24/24 A2997 RMK A01

Conditions at: KVVG observed 22 July 2017  10:50 UTC
Temperature: 23.0°C (73°F)
Dewpoint: 23.0°C (73°F) [RH = 100%]
Pressure (altimeter): 29.96 inches Hg (1014.6 mb)
Winds: calm
Visibility: 10 or more miles (16+ km)
Ceiling: unknown
Clouds: missing
Present Weather: automated observation with no human augmentation;
there may or may not be significant weather present at this time
KVVG 221050Z AUTO 00000KT 10SM 23/23 A2996 RMK A01

Conditions at: KVVG observed 22 July 2017  10:30 UTC
Temperature: 23.0°C (73°F)
Dewpoint: 23.0°C (73°F) [RH = 100%]
Pressure (altimeter): 29.95 inches Hg (1014.3 mb)
Winds: calm
Visibility: 10 or more miles (16+ km)
Ceiling: unknown
Clouds: missing
Present Weather: automated observation with no human augmentation;
there may or may not be significant weather present at this time
KVVG 221030Z AUTO 00000KT 10SM 23/23 A2995 RMK A01

Conditions at: KVVG observed 22 July 2017  10:10 UTC
Temperature: 23.0°C (73°F)
Dewpoint: 23.0°C (73°F) [RH = 100%]
Pressure (altimeter): 29.95 inches Hg (1014.3 mb)
Winds: calm
Visibility: 10 or more miles (16+ km)
Ceiling: unknown
Clouds: missing
Present Weather: automated observation with no human augmentation;
there may or may not be significant weather present at this time
KVVG 221010Z AUTO 00000KT 10SM 23/23 A2995 RMK A01

Conditions at: KVVG observed 22 July 2017  09:50 UTC
Temperature: 24.0°C (75°F)
Dewpoint: 24.0°C (75°F) [RH = 100%]
Pressure (altimeter): 29.94 inches Hg (1014.0 mb)
Winds: calm
Visibility: 10 or more miles (16+ km)
Ceiling: unknown
Clouds: missing
Present Weather: automated observation with no human augmentation;
there may or may not be significant weather present at this time
KVVG 220950Z AUTO 00000KT 10SM 24/24 A2994 RMK A01

Conditions at: KVVG observed 22 July 2017  09:30 UTC
Temperature: 24.0°C (75°F)
Dewpoint: 24.0°C (75°F) [RH = 100%]
Pressure (altimeter): 29.94 inches Hg (1014.0 mb)
Winds: calm
Visibility: 10 or more miles (16+ km)
Ceiling: unknown
Clouds: missing
Present Weather: automated observation with no human augmentation;
there may or may not be significant weather present at this time
KVVG 220930Z AUTO 00000KT 10SM 24/24 A2994 RMK A01

Conditions at: KVVG observed 22 July 2017  09:10 UTC
Temperature: 24.0°C (75°F)
Dewpoint: 24.0°C (75°F) [RH = 100%]
Pressure (altimeter): 29.93 inches Hg (1013.6 mb)
Winds: calm
Visibility: 10 or more miles (16+ km)
Ceiling: unknown
Clouds: missing
Present Weather: automated observation with no human augmentation;
there may or may not be significant weather present at this time
KVVG 220910Z AUTO 00000KT 10SM 24/24 A2993 RMK A01

Conditions at: KVVG observed 22 July 2017  08:50 UTC
Temperature: 24.0°C (75°F)
Dewpoint: 24.0°C (75°F) [RH = 100%]
Pressure (altimeter): 29.93 inches Hg (1013.6 mb)
Winds: calm
Visibility: 10 or more miles (16+ km)
Ceiling: unknown
Clouds: missing
Present Weather: automated observation with no human augmentation;
there may or may not be significant weather present at this time
KVVG 220850Z AUTO 00000KT 10SM 24/24 A2993 RMK A01